Regional Weather Roundup
Issued by NWS

Home | Current Version | Previous Version | Text Only | Print | Product List | Glossary On
Versions: 1 2 3 4 5 6 7 8 9 10 11 12 13 14 15 16 17 18 19 20 21 22 23 24 25 26 27 28 29 30 31 32 33 34 35 36 37 38 39 40 41 42 43 44 45 46 47 48 49 50
000
ASUS44 KBMX 282310
RWRAL

ALABAMA REGIONAL WEATHER ROUNDUP
NATIONAL WEATHER SERVICE BIRMINGHAM AL
600 PM CDT SAT MAY 28 2016

NOTE: "FAIR" INDICATES FEW OR NO CLOUDS BELOW 12,000 FEET
WITH NO SIGNIFICANT WEATHER AND/OR OBSTRUCTIONS TO VISIBILITY.

THE REMARK "TC" DENOTES TEMPERATURE IN DEGREES CELSIUS.

ALZ001>011-014-016>018-020-290000-
NORTH ALABAMA

CITY           SKY/WX    TMP DP  RH WIND       PRES   REMARKS
MUSCLE SHOALS  CLOUDY    82  62  50 S12       30.07S
HUNTSVILLE     CLOUDY    81  58  45 S5        30.08S
DECATUR        MOSUNNY   78  62  57 SE6       30.08S
HALEYVILLE     FAIR      80  64  58 S6        30.10S
GADSDEN        CLOUDY    77  68  73 W7        30.09R
$$

ALZ012-013-022-023-030>036-040>044-290000-
WEST CENTRAL ALABAMA

CITY           SKY/WX    TMP DP  RH WIND       PRES   REMARKS
TUSCALOOSA     SUNNY     84  62  47 SW5       30.05S
$$

ALZ015-024>027-033>036-040>044-290000-
CENTRAL ALABAMA

CITY           SKY/WX    TMP DP  RH WIND       PRES   REMARKS
BIRMINGHAM     PTSUNNY   82  60  47 SE3       30.09F
MONTGOMERY     CLOUDY    85  66  53 CALM      30.04F
SHELBY CO ARPT CLOUDY    82  65  56 S5        30.07S
MAXWELL AFB    CLOUDY    85  67  55 NW2       30.04S
GREENVILLE     FAIR      83  66  56 NE5       30.04S
$$

ALZ019-021-028-029-037-038-045>048-290000-
EAST CENTRAL ALABAMA

CITY           SKY/WX    TMP DP  RH WIND       PRES   REMARKS
ANNISTON       CLOUDY    80  64  58 W10       30.07F
ALEXANDER CITY MOSUNNY   80  70  72 CALM      30.07S
AUBURN         PTSUNNY  N/A N/A N/A CALM      30.08S
$$

ALZ051>064-290000-
SOUTHWEST ALABAMA

CITY           SKY/WX    TMP DP  RH WIND       PRES   REMARKS
MOBILE         PTSUNNY   81  69  67 SE8       30.05R
BROOKLEY FIELD MOSUNNY   80  69  69 S5        30.05S
EVERGREEN      CLOUDY    83  65  54 SW3       30.04S
$$

ALZ049-050-065>069-290000-
SOUTHEAST ALABAMA

CITY           SKY/WX    TMP DP  RH WIND       PRES   REMARKS
DOTHAN         SUNNY     87  62  43 NW7       30.06S
OZARK          SUNNY     84  64  50 NW3       30.03S
TROY           PTSUNNY   85  65  51 N7        30.05F
EUFAULA        FAIR      89  62  40 W5        30.02S
$$



USA.gov is the U.S. government's official web portal to all federal, state and local government web resources and services.